Regional Weather Roundup
Issued by NWS

Home | Current Version | Previous Version | Text Only | Print | Product List | Glossary On
Versions: 1 2 3 4 5 6 7 8 9 10 11 12 13 14 15 16 17 18 19 20 21 22 23 24 25 26 27 28 29 30 31 32 33 34 35 36 37 38 39 40 41 42 43 44 45 46 47 48 49 50
000
ASUS44 KLIX 180311
RWRLA
LOUISIANA WEATHER ROUNDUP
NATIONAL WEATHER SERVICE NEW ORLEANS LA
1000 PM CDT FRI APR 17 2015

NOTE: "FAIR" INDICATES FEW OR NO CLOUDS BELOW 12,000 FEET WITH NO
      SIGNIFICANT WEATHER AND/OR OBSTRUCTIONS TO VISIBILITY.
      SKY/WX - SKY CONDITION AND SIGNIFICANT WEATHER.
      TMP - AIR TEMPERATURE.    DP   - DEWPOINT TEMPERATURE.
      RH  - RELATIVE HUMIDITY.  PRES - PRESSURE.
      HX  - HEAT INDEX.         WCI  - WIND CHILL INDEX.

*  THESE STATIONS ARE NOT NWS OR FAA STATIONS AND ARE NOT UNDER
   NWS QUALITY CONTROL.

LAZ040-048-061>063-065-066-069-180400-
SOUTHEAST LOUISIANA

CITY           SKY/WX    TMP DP  RH WIND       PRES   REMARKS
N.O. AUDUBON     N/A     75  73  95 MISG        N/A
N.O. INTL ARPT CLOUDY    75  70  84 SE3       29.94R
N.O. LAKEFRONT CLOUDY    78  69  73 S3        29.95R
SLIDELL        CLOUDY    72  71  97 CALM      29.94R
BATON ROUGE    CLOUDY    72  69  90 CALM      29.95R FOG
BOOTHVILLE     MOCLDY    74  71  91 S3        29.95S
BELLE CHASSE   CLOUDY    70  68  93 E3        29.94R
BOGALUSA*        N/A     72  69  88 N7        29.96R
GALLIANO*      CLOUDY    73  71  93 CALM      29.95R FOG
NEW ROADS*     FAIR      73  71  95 CALM      29.95R
GONZALES*      FAIR      72  72 100 CALM      29.94R
HAMMOND*       CLOUDY    73  68  83 CALM      29.96R
HOUMA*         CLOUDY    72  70  95 CALM      29.94R
PORT FOURCHON* PTCLDY    77  68  73 E5        29.97S

$$

LAZ041-044-053-054-180400-
SOUTHWEST LOUISIANA

CITY           SKY/WX    TMP DP  RH WIND       PRES   REMARKS
LAKE CHARLES   LGT RAIN  74  72  93 E5        29.91S
LAFAYETTE      CLOUDY    76  71  85 CALM      29.95R
PATTERSON      CLOUDY    73  70  88 CALM      29.95R
SALT POINT       N/A     73  71  93 CALM      29.92R
NEW IBERIA     CLOUDY    75  71  87 N6        29.95R
CHENAULT AIRPK TSTM      73  72  94 CALM      29.93

$$

LAZ027-028-180400-
CENTRAL LOUISIANA

CITY           SKY/WX    TMP DP  RH WIND       PRES   REMARKS
FORT POLK      CLOUDY    72  67  84 E5        29.93S
ALEXANDRIA INT CLOUDY    70  68  93 CALM      29.94R
ALEXANDRIA     CLOUDY    68  67  96 CALM      29.96R

$$

LAZ001-002-180400-
NORTHWEST LOUISIANA

CITY           SKY/WX    TMP DP  RH WIND       PRES   REMARKS
SHREVEPORT     CLOUDY    72  65  78 SE3       29.94R
BARKSDALE AFB  CLOUDY    70  65  84 E3        29.94R
DTN SHREVEPORT CLOUDY    72  63  73 SE3       29.95R

$$

LAZ014-016-180400-
NORTHEAST LOUISIANA

CITY           SKY/WX    TMP DP  RH WIND       PRES   REMARKS
MONROE         CLOUDY    70  64  81 E3        29.98R
TALLULAH       CLOUDY    69  63  81 NE7       29.95F

$$




USA.gov is the U.S. government's official web portal to all federal, state and local government web resources and services.